Location: Theydon Bois
(51.6750°N, 0.1050°E)
Time: 01:19:10
(UTC+01:00)

Envisat - Visible Passes

Search period start: 18 October 2017 00:00
Search period end: 28 October 2017 00:00
Orbit: 764 x 766 km, 98.2° (Epoch: 17 October)

Date Brightness Start Highest point End Pass type
(mag) Time Alt. Az. Time Alt. Az. Time Alt. Az.
18 Oct 3.8 19:31:40 23° ESE 19:33:46 32° ENE 19:38:14 10° N visible
18 Oct 3.9 21:11:53 42° SW 21:12:40 46° W 21:17:34 10° NNW visible
19 Oct 4.4 18:54:41 12° E 18:57:28 18° NE 19:00:51 10° NNE visible
19 Oct 2.9 20:34:55 61° SSE 20:35:50 89° WSW 20:40:59 10° NNW visible
19 Oct 5.5 22:15:07 15° W 22:15:37 15° W 22:18:30 10° NW visible
20 Oct 3.2 19:57:55 39° ESE 19:59:13 48° ENE 20:04:07 10° N visible
20 Oct 4.6 21:38:08 29° W 21:38:28 29° W 21:42:53 10° NNW visible
21 Oct 4.0 19:20:56 22° E 19:22:46 27° ENE 19:26:59 10° N visible
21 Oct 3.5 21:01:09 55° WSW 21:01:30 56° W 21:06:32 10° NNW visible
22 Oct 4.6 18:43:57 11° E 18:46:30 16° NE 18:49:26 10° NNE visible
22 Oct 2.8 20:24:10 67° SE 20:24:45 76° ENE 20:29:51 10° NNW visible
22 Oct 5.3 22:04:23 18° W 22:04:23 18° W 22:07:51 10° NW visible
23 Oct 3.4 19:47:11 36° E 19:48:10 40° ENE 19:52:55 10° N visible
23 Oct 4.4 21:27:24 35° W 21:27:24 35° W 21:31:55 10° NNW visible
24 Oct 4.2 19:10:11 20° E 19:11:46 23° ENE 19:15:41 10° N visible
24 Oct 3.2 20:50:25 68° W 20:50:25 68° W 20:55:28 10° NNW visible
24 Oct 5.9 22:30:38 11° W 22:30:38 11° W 22:31:46 10° WNW visible
25 Oct 4.8 18:33:15 10° ENE 18:35:34 13° NE 18:37:53 10° NNE visible
25 Oct 2.9 20:13:25 62° E 20:13:39 63° ENE 20:18:42 10° N visible
25 Oct 5.1 21:53:38 22° W 21:53:38 22° W 21:57:04 10° NW visible
26 Oct 3.6 19:36:26 32° E 19:37:08 34° ENE 19:41:41 10° N visible
26 Oct 4.1 21:16:39 41° W 21:16:39 41° W 21:20:56 10° NNW visible
27 Oct 4.3 18:59:27 18° ENE 19:00:48 19° NE 19:04:21 10° N visible
27 Oct 3.0 20:39:39 75° NW 20:39:39 75° NW 20:44:22 10° NNW visible
27 Oct 5.7 22:19:52 13° WNW 22:19:52 13° WNW 22:21:39 10° NW visible
